User: anonymous   Login
Location: Unspecified
(0.0000°N, 0.0000°E)
Time: 03:29:48
(UTC+00:00)
Language:

HORYU 4 - Orbit

View from above orbital plane
View from above orbital plane
View from above satellite
View from above satellite

Ground track
Ground track

The orbit data is extracted from the following two-line orbital elements,

1 41340U 16012D   17173.90812940 +.00000534 +00000-0 +34465-4 0  9992
2 41340 031.0058 072.5131 0014170 131.8846 228.3000 15.00602375073873
Epoch (UTC): 22 June 2017 21:47:42
Eccentricity: 0.0014170
inclination: 31.0058°
perigee height: 555 km
apogee height: 575 km
right ascension of ascending node: 72.5131°
argument of perigee: 131.8846°
revolutions per day: 15.00602375
mean anomaly at epoch: 228.3000°
orbit number at epoch: 7387

The dashed part of the orbit path shows where the satellite is in the earth's shadow,  

DLR